Overview Statistics Trail Chart Weather Telemetry Raw packets
 

This is the latest recevied weather packets stored in our database for station/object KO4LCK. If no packets are shown the sender has not sent any weather packets the latest 10 day(s).

<< 15 16 17 18 19 20 21 >>
Time Temp. Humidity Pressure Rain* Wind** Luminosity Snow
1788543158 34.44° C 55% 1017.8 hPa 0 mm - 157 W/m² -
1788542855 34.44° C 53% 1018.1 hPa 0 mm - 136 W/m² -
1788542553 34.44° C 52% 1018 hPa 0 mm - 177 W/m² -
1788542249 33.89° C 58% 1018.1 hPa 0 mm - 801 W/m² -
1788541944 35° C 53% 1018.1 hPa 0 mm - 157 W/m² -
1788541640 35° C 51% 1018.3 hPa 0 mm - 156 W/m² -
1788541344 34.44° C 53% 1018.3 hPa 0 mm - 764 W/m² -
1788541035 34.44° C 53% 1018.4 hPa 0 mm - 206 W/m² -
1788540735 33.89° C 54% 1018.5 hPa 0 mm - 817 W/m² -
1788540429 34.44° C 54% 1018.5 hPa 0 mm - 149 W/m² -
1788540129 35° C 51% 1018.6 hPa 0 mm - 158 W/m² -
1788539826 36.11° C 49% 1018.6 hPa 0 mm - 322 W/m² -
1788539521 36.11° C 49% 1018.7 hPa 0 mm - 710 W/m² -
1788539220 36.11° C 49% 1018.8 hPa 0 mm - 707 W/m² -
1788538915 36.11° C 50% 1018.6 hPa 0 mm - 698 W/m² -
1788538611 35.56° C 50% 1018.7 hPa 0 mm - 685 W/m² -
1788538306 35° C 52% 1018.7 hPa 0 mm - 682 W/m² -
1788538002 34.44° C 56% 1018.9 hPa 0 mm - 673 W/m² -
1788537697 35° C 53% 1019 hPa 0 mm - 665 W/m² -
1788537392 35° C 53% 1018.9 hPa 0 mm - 658 W/m² -
1788537086 34.44° C 55% 1018.7 hPa 0 mm - 646 W/m² -
1788536785 34.44° C 54% 1018.8 hPa 0 mm - 642 W/m² -
1788536485 34.44° C 54% 1019 hPa 0 mm - 630 W/m² -
1788536180 33.89° C 57% 1019.1 hPa 0 mm - 620 W/m² -
1788535875 33.33° C 58% 1018.9 hPa 0 mm - 610 W/m² -

* Rain latest hour (hover to see other rain measurements)
** Current wind speed in m/s (hover to see current wind gust speed)